Regional Weather Roundup
Issued by NWS

Home | Current Version | Previous Version | Text Only | Print | Product List | Glossary On
Versions: 1 2 3 4 5 6 7 8 9 10 11 12 13 14 15 16 17 18 19 20 21 22 23 24 25 26 27 28 29 30 31 32 33 34 35 36 37 38 39 40 41 42 43 44 45 46 47 48 49 50
105
ASUS43 KMKX 290800
RWRWI

WISCONSIN REGIONAL WEATHER ROUNDUP
NATIONAL WEATHER SERVICE MILWAUKEE/SULLIVAN WI
300 AM CDT SAT APR 29 2017

NOTE: "FAIR" INDICATES FEW OR NO CLOUDS BELOW 12,000 FEET WITH NO
SIGNIFICANT WEATHER AND/OR OBSTRUCTIONS TO VISIBILITY.

WIZ001-002-006>008-014>016-023>028-290900-
NORTHWEST WISCONSIN

CITY           SKY/WX    TMP DP  RH WIND       PRES   REMARKS
SUPERIOR ARPT  CLEAR     27  26  96 CALM      30.23R
ASHLAND        CLEAR     27  25  92 W3        30.22S
HAYWARD        CLEAR     28  25  88 N3        30.19F
SIREN          CLEAR     32  27  81 CALM      30.21F
CUMBERLAND     CLOUDY    32  28  86 NE3       30.20S
RICE LAKE      CLOUDY    35  28  77 N8        30.20F WCI  28
CHETEK         NOT AVBL
LADYSMITH      CLOUDY    32  27  81 N5        30.20S WCI  28
EAU CLAIRE     NOT AVBL
MENOMONIE      PTCLDY    38  29  71 N8        30.18R WCI  32
NEW RICHMOND   MOCLDY    37  28  71 NE7       30.18R WCI  31
OSCEOLA        CLOUDY    38  29  70 NE8       30.23R WCI  32
$$

WIZ003>005-009-010-017-018-290900-
NORTH CENTRAL WISCONSIN

CITY           SKY/WX    TMP DP  RH WIND       PRES   REMARKS
MANITOWISH WTR CLEAR     29  28  96 N3        30.17R
ARBOR VITAE    CLEAR     32  28  87 N3        30.15S
WOODRUFF       CLEAR     32  28  87 N3        30.15S
RHINELANDER    CLOUDY    31  27  85 CALM      30.15S
EAGLE RIVER    PTCLDY    29  24  81 N5        30.14S WCI  24
LAND O LAKES   CLEAR     31  27  83 N6        30.17R WCI  25
PHILLIPS       PTCLDY    29  26  90 CALM      30.17R
TOMAHAWK       CLOUDY    28  26  92 CALM      30.16S
MEDFORD        PTCLDY    32  27  81 N6        30.15S WCI  26
MERRILL        PTCLDY    32  27  83 CALM      30.17R
$$

WIZ029-030-035-036-043>047-290900-
CENTRAL WISCONSIN

CITY           SKY/WX    TMP DP  RH WIND       PRES   REMARKS
WAUSAU         PTCLDY    33  26  75 N7        30.13F WCI  27
MOSINEE        PTCLDY    34  30  86 N7        30.16S WCI  28
MARSHFIELD     PTCLDY    35  27  72 NE10      30.11F WCI  27
STEVENS POINT  PTCLDY    34  29  81 N12       30.13F WCI  25
WAUPACA        CLOUDY    42  32  67 N7        30.11F
WAUTOMA        NOT AVBL
WISC RAPIDS    PTCLDY    38  30  73 NE16      30.11F WCI  29
CAMP DOUGLAS   NOT AVBL
$$

WIZ011>013-019>022-031-037>040-048>050-290900-
NORTHEAST WISCONSIN

CITY           SKY/WX    TMP DP  RH WIND       PRES   REMARKS
ANTIGO         CLOUDY    30  26  84 N7        30.14S WCI  23
SHAWANO        MOCLDY    38  29  69 N10       30.15R WCI  31
OCONTO         MOCLDY    36  27  71 N7        30.13F WCI  30
STURGEON BAY   MOCLDY    37  24  59 N20       30.12F WCI  27
GREEN BAY      PTCLDY    39  30  70 N14       30.12S WCI  31
MANITOWOC      NOT AVBL
APPLETON       PTCLDY    41  28  60 N13G21    30.08F
CLINTONVILLE   PTCLDY    37  28  70 N10       30.12F WCI  30
OSHKOSH        MOCLDY    43  29  57 N13       30.09F
$$

WIZ032>034-041-042-053>061-290900-
SOUTHWEST WISCONSIN

CITY           SKY/WX    TMP DP  RH WIND       PRES   REMARKS
LA CROSSE      MOCLDY    38  32  79 N7        30.09F WCI  33
SPARTA         CLOUDY    35  32  89 N7        30.09F WCI  29
VIROQUA        MOCLDY    39  33  78 NE9       30.06F WCI  33
BOSCOBEL       PTCLDY    44  35  70 NE7       30.05F
PRAIRIE DU CHI PTCLDY    42  33  71 CALM      30.04F
PLATTEVILLE    CLOUDY    44  41  90 NE9       30.02F
$$

WIZ056-057-062-063-064-067-068-290900-
SOUTH CENTRAL WISCONSIN

CITY           SKY/WX    TMP DP  RH WIND       PRES   REMARKS
REEDSBURG      PTCLDY    42  33  68 NE7       30.07F
BARABOO/DELLS  PTCLDY    41  32  69 NE8       30.07S
LONE ROCK      NOT AVBL
MINERAL POINT  PTCLDY    43  39  87 N10       30.02F
MADISON        CLOUDY    44  37  76 NE12      30.07R
MIDDLETON      CLOUDY    46  38  74 N14       30.06R
WATERTOWN      CLOUDY    45  39  81 NE14      30.06R
MONROE         CLOUDY    43  37  81 NE13      30.04R
JANESVILLE     CLOUDY    46  39  76 NE7       30.05R
$$

WIZ051-052-058>065-066-070>072-290900-
SOUTHEAST WISCONSIN

CITY           SKY/WX    TMP DP  RH WIND       PRES   REMARKS
MILWAUKEE      CLOUDY    44  37  76 NE13G24   30.08R
WAUKESHA       CLOUDY    43  34  70 NE12G21   30.08R
MILWAUKEE/TIMM CLOUDY    43  32  65 NE16G23   30.08R
RACINE         CLOUDY    43  37  79 NE12      30.14R
KENOSHA        CLOUDY    44  38  79 NE8       30.11R
FOND DU LAC    CLOUDY    45  29  53 NE21G26   30.09S
SHEBOYGAN      CLOUDY    43  36  76 N13       30.07R
WEST BEND      CLOUDY    43  36  75 NE9       30.08R
JUNEAU         CLOUDY    43  35  72 N13G20    30.07S
$$

LSZ147-162-290900-
LAKE SUPERIOR

STATION/POSITION TIME  TEMP    WIND        PRES    WAVE
                       AIR SEA DIR/SP/G            HT/PER
                 (UTC) (F)     (DEG/KT/KT) (MB)    (FT/S)
DEVILS ISLAND    0700   37     280/  3/  4 1023.6R
PORT WING        0730   29     130/  2/  4 1023.7R
SAXON HARBOR     0730   29     200/  4/  5 1023.0R
$$

LMZ867-665-643>646-290900-
LAKE MICHIGAN

STATION/POSITION TIME  TEMP    WIND        PRES    WAVE
                       AIR SEA DIR/SP/G            HT/PER
                 (UTC) (F)     (DEG/KT/KT) (MB)    (FT/S)
CHAMBERS ISLAND  0740   37     340/ 14/ 16 1020.3R
N MID LAKE BUOY  0650   37 37  340/ 17/ 19 1020.7R   1/ 5
NORTHPORT PIER   0740   38     340/ 17/ 20 1020.7R
SISTER BAY       0606   39     350/ 23/ 27   N/A
KEWAUNEE LAKESHO 0730   42     350/  9/ 13 1018.8F
SHEBOYGAN LAKESH 0700   43      10/ 20/ 22 1018.6F
PORT WASHINGTON  0740   44      20/  8/ 13 1019.6R
MILWAUKEE LAKESH 0730   43      10/ 15/ 17   N/A
S MID LAKE BUOY  0650   43 41   30/ 14/ 16 1016.7F   2/ 4
KENOSHA   LAKESH 0700   43      10/ 17/ 18 1017.3
$$

TC  - TEMPERATURE IN CELSIUS
VSB - VISIBILITY IN STATUTE MILES
WCI - WIND CHILL INDEX
HX  - HEAT INDEX





USA.gov is the U.S. government's official web portal to all federal, state and local government web resources and services.